KU4DD Weather Reports


time (UTC)temp
C
wind
direction
speed
KPH
gust
KPH
rain 1hr
cm
rain 24hr
cm
rain mn
cm
humidity
%
barometer
mb
20260901063732 24 285 0.0 0.0 0.00 0.00 0.00 94 1019.0
20260901063228 24 300 1.6 0.0 0.00 0.00 0.00 94 1019.0
20260901062705 24 248 1.6 0.0 0.00 0.00 0.00 94 1019.0
20260901062154 24 248 0.0 0.0 0.00 0.00 0.00 94 1019.0
20260901061650 24 215 1.6 0.0 0.00 0.00 0.00 94 1019.0
20260901061148 24 188 1.6 0.0 0.00 0.00 0.00 94 1019.0
20260901060625 25 284 0.0 0.0 0.00 0.00 0.00 93 1019.0
20260901060120 25 284 0.0 0.0 0.00 0.00 0.00 93 1019.0
20260901055608 25 284 0.0 0.0 0.00 0.00 0.00 93 1019.0
20260901055055 25 284 0.0 0.0 0.00 0.00 0.00 93 1019.0
20260901054553 25 284 0.0 0.0 0.00 0.00 0.00 93 1019.0
20260901054047 25 284 0.0 0.0 0.00 0.00 0.00 92 1019.0
20260901053534 25 284 0.0 0.0 0.00 0.00 0.00 92 1019.0
20260901053019 25 284 3.2 0.0 0.00 0.00 0.00 92 1019.0
20260901052506 25 309 1.6 1.6 0.00 0.00 0.00 92 1019.0
20260901051946 25 246 1.6 0.0 0.00 0.00 0.00 92 1019.0
20260901051431 25 284 3.2 0.0 0.00 0.00 0.00 92 1019.0
20260901050922 25 254 1.6 0.0 0.00 0.00 0.00 91 1019.3
20260901050402 25 256 1.6 0.0 0.00 0.00 0.00 91 1019.3
20260901045855 25 226 3.2 0.0 0.00 0.00 0.00 91 1019.3
20260901045346 25 271 0.0 0.0 0.00 0.00 0.00 91 1019.3
20260901044837 25 276 1.6 0.0 0.00 0.00 0.00 91 1019.0
20260901044320 25 271 1.6 0.0 0.00 0.00 0.00 90 1019.0
20260901043812 25 279 4.8 1.6 0.00 0.00 0.00 90 1019.0
20260901043257 25 273 6.4 1.6 0.00 0.00 0.00 90 1019.0
20260901042751 25 238 0.0 0.0 0.00 0.00 0.00 90 1019.0
20260901042246 25 215 0.0 0.0 0.00 0.00 0.00 90 1019.0
20260901041742 26 252 1.6 1.6 0.00 0.00 0.00 90 1019.0
20260901041232 26 259 1.6 1.6 0.00 0.00 0.00 90 1019.0
20260901040715 26 244 3.2 1.6 0.00 0.00 0.00 90 1019.0
20260901040214 25 269 6.4 1.6 0.00 0.00 0.00 90 1019.0
20260901035657 25 226 1.6 0.0 0.00 0.00 0.00 89 1019.0
20260901035138 26 221 8.0 1.6 0.00 0.00 0.00 89 1019.0
20260901034636 26 210 1.6 1.6 0.00 0.00 0.00 89 1019.0
20260901034129 26 249 4.8 0.0 0.00 0.00 0.00 89 1019.0
20260901033617 26 275 1.6 1.6 0.00 0.00 0.00 88 1019.0
20260901033109 26 206 3.2 1.6 0.00 0.00 0.00 88 1019.0
20260901032556 26 190 6.4 0.0 0.00 0.00 0.00 87 1019.0
20260901032052 26 198 1.6 0.0 0.00 0.00 0.00 86 1019.0
20260901031543 26 213 0.0 1.6 0.00 0.00 0.00 86 1019.0
20260901031025 26 209 4.8 1.6 0.00 0.00 0.00 85 1019.0
20260901030512 26 208 1.6 1.6 0.00 0.00 0.00 85 1018.6
20260901030009 25 232 6.4 1.6 0.00 0.00 0.00 85 1019.0
20260901025505 25 218 0.0 0.0 0.00 0.00 0.00 86 1019.0
20260901025003 25 197 1.6 0.0 0.00 0.00 0.00 88 1019.0
20260901024449 25 197 0.0 0.0 0.00 0.00 0.00 87 1018.6
20260901023948 25 197 0.0 0.0 0.00 0.00 0.00 87 1018.6
20260901023431 25 197 0.0 0.0 0.00 0.00 0.00 88 1018.6
20260901022923 25 197 0.0 0.0 0.00 0.00 0.00 87 1018.6
20260901022407 25 197 0.0 0.0 0.00 0.00 0.00 87 1018.6
20260901021901 25 197 0.0 0.0 0.00 0.00 0.00 86 1018.6
20260901021355 25 197 0.0 0.0 0.00 0.00 0.00 85 1018.6
20260901020848 25 197 0.0 0.0 0.00 0.00 0.00 85 1018.6
20260901020336 25 197 0.0 0.0 0.00 0.00 0.00 84 1018.6
20260901015821 25 197 0.0 0.0 0.00 0.00 0.00 83 1018.6
20260901015307 25 197 0.0 0.0 0.00 0.00 0.00 83 1018.6
20260901014747 26 197 0.0 0.0 0.00 0.00 0.00 83 1018.6
20260901014231 26 197 0.0 0.0 0.00 0.00 0.00 83 1018.6
20260901013720 26 197 0.0 0.0 0.00 0.00 0.00 83 1018.3
20260901013209 26 197 0.0 0.0 0.00 0.00 0.00 83 1018.3
20260901012702 26 197 0.0 0.0 0.00 0.00 0.00 82 1018.3
20260901012156 26 197 0.0 0.0 0.00 0.00 0.00 81 1018.3
20260901011640 26 197 0.0 0.0 0.00 0.00 0.00 81 1018.3
20260901011126 26 197 0.0 0.0 0.00 0.00 0.00 81 1018.3
20260901010611 26 197 0.0 0.0 0.00 0.00 0.00 81 1018.3
20260901010110 26 197 0.0 0.0 0.00 0.00 0.00 81 1018.3
20260901005555 26 197 0.0 0.0 0.00 0.00 0.00 80 1017.9
20260901005049 26 197 0.0 0.0 0.00 0.00 0.00 81 1017.9
20260901004538 26 197 0.0 0.0 0.00 0.00 0.00 81 1017.9
20260901004026 26 197 0.0 0.0 0.00 0.00 0.00 81 1017.9
20260901003511 27 197 0.0 0.0 0.00 0.00 0.00 80 1017.9
20260901002959 27 197 0.0 0.0 0.00 0.00 0.00 79 1017.9
20260901002442 27 197 0.0 0.0 0.00 0.00 0.00 77 1017.9
20260901001937 27 197 0.0 0.0 0.00 0.00 0.00 76 1017.9
20260901001417 27 199 0.0 0.0 0.00 0.00 0.00 76 1017.9
20260901000857 27 199 0.0 0.0 0.00 0.00 0.00 76 1017.9
20260901000346 28 199 0.0 0.0 0.00 0.00 0.00 75 1017.6
20260831235843 28 199 0.0 0.0 0.00 0.00 0.00 75 1017.9
20260831235333 28 207 0.0 0.0 0.00 0.00 0.00 76 1017.9
20260831234818 28 277 0.0 0.0 0.00 0.00 0.00 76 1017.6
20260831234314 28 277 0.0 0.0 0.00 0.00 0.00 75 1017.6
20260831233757 29 277 0.0 0.0 0.00 0.00 0.00 75 1017.6
20260831233245 30 277 0.0 0.0 0.00 0.00 0.00 73 1017.6
20260831232730 30 277 0.0 0.0 0.00 0.00 0.00 70 1017.6
20260831232227 30 277 0.0 0.0 0.00 0.00 0.00 65 1017.6
20260831231721 31 277 0.0 0.0 0.00 0.00 0.00 64 1017.6
20260831231206 31 277 0.0 0.0 0.00 0.00 0.00 64 1017.6
20260831230657 31 277 0.0 0.0 0.00 0.00 0.00 61 1017.6
20260831230141 32 277 0.0 0.0 0.00 0.00 0.00 62 1017.6
20260831225637 32 277 0.0 0.0 0.00 0.00 0.00 61 1017.6
20260831225123 32 277 0.0 0.0 0.00 0.00 0.00 61 1017.6
20260831224604 33 277 0.0 0.0 0.00 0.00 0.00 58 1017.6
20260831224058 33 277 0.0 0.0 0.00 0.00 0.00 55 1017.3
20260831223551 33 276 0.0 0.0 0.00 0.00 0.00 54 1017.3
20260831223037 33 277 0.0 0.0 0.00 0.00 0.00 54 1017.3
20260831222535 33 277 0.0 0.0 0.00 0.00 0.00 53 1017.3
20260831222028 33 277 0.0 0.0 0.00 0.00 0.00 53 1017.6
20260831221519 33 277 0.0 0.0 0.00 0.00 0.00 52 1017.6
20260831221013 33 275 1.6 0.0 0.00 0.00 0.00 51 1017.6
20260831220512 33 275 1.6 0.0 0.00 0.00 0.00 51 1017.6
20260831220008 33 275 0.0 0.0 0.00 0.00 0.00 51 1017.6
20260831215500 33 275 0.0 0.0 0.00 0.00 0.00 54 1017.6
20260831214946 33 275 0.0 0.0 0.00 0.00 0.00 52 1017.6
20260831214443 33 272 3.2 1.6 0.00 0.00 0.00 51 1017.6
20260831213934 33 278 3.2 1.6 0.00 0.00 0.00 53 1017.6
20260831213431 33 286 0.0 1.6 0.00 0.00 0.00 52 1017.6
20260831212930 33 292 6.4 1.6 0.00 0.00 0.00 51 1017.6
20260831212427 33 338 4.8 1.6 0.00 0.00 0.00 50 1017.6
20260831211921 34 320 1.6 0.0 0.00 0.00 0.00 50 1017.6
20260831211419 34 292 0.0 0.0 0.00 0.00 0.00 52 1017.9
20260831210912 34 221 1.6 0.0 0.00 0.00 0.00 50 1017.9
20260831210407 34 211 0.0 0.0 0.00 0.00 0.00 51 1017.9
20260831205906 34 258 1.6 0.0 0.00 0.00 0.00 55 1017.9
20260831205353 34 191 1.6 0.0 0.00 0.00 0.00 54 1017.9
20260831204843 34 201 1.6 0.0 0.00 0.00 0.00 52 1017.9
20260831204337 34 210 3.2 0.0 0.00 0.00 0.00 52 1017.9
20260831203820 34 263 4.8 0.0 0.00 0.00 0.00 53 1017.9
20260831203317 34 227 1.6 1.6 0.00 0.00 0.00 53 1017.9
20260831202808 33 304 0.0 1.6 0.00 0.00 0.00 53 1018.3
20260831202259 34 298 6.4 1.6 0.00 0.00 0.00 52 1017.9
20260831201744 34 254 0.0 0.0 0.00 0.00 0.00 52 1018.3
20260831201240 33 48 0.0 0.0 0.00 0.00 0.00 54 1017.9
20260831200737 33 60 4.8 0.0 0.00 0.00 0.00 51 1018.3
20260831200226 33 165 1.6 0.0 0.00 0.00 0.00 54 1018.3
20260831195714 33 194 1.6 0.0 0.00 0.00 0.00 52 1018.3
20260831195211 34 201 3.2 0.0 0.00 0.00 0.00 51 1018.3
20260831194704 34 182 0.0 0.0 0.00 0.00 0.00 52 1018.3
20260831194158 34 210 1.6 0.0 0.00 0.00 0.00 51 1018.3
20260831193650 33 148 1.6 0.0 0.00 0.00 0.00 52 1018.3
20260831193135 33 286 3.2 0.0 0.00 0.00 0.00 53 1018.6
20260831192631 33 190 3.2 1.6 0.00 0.00 0.00 54 1018.6
20260831192122 34 217 4.8 1.6 0.00 0.00 0.00 53 1018.6
20260831191616 33 193 0.0 0.0 0.00 0.00 0.00 53 1018.6
20260831191110 33 323 1.6 1.6 0.00 0.00 0.00 52 1019.0
20260831190554 33 286 8.0 0.0 0.00 0.00 0.00 57 1019.0
20260831190048 33 193 1.6 0.0 0.00 0.00 0.00 55 1019.0
20260831185526 33 159 3.2 0.0 0.00 0.00 0.00 54 1019.0
20260831185026 33 130 0.0 0.0 0.00 0.00 0.00 58 1019.0
20260831184523 33 194 3.2 0.0 0.00 0.00 0.00 55 1019.0
20260831184015 33 277 0.0 1.6 0.00 0.00 0.00 55 1019.0
20260831183503 33 286 8.0 1.6 0.00 0.00 0.00 58 1019.3
20260831183001 32 197 1.6 1.6 0.00 0.00 0.00 57 1019.3
20260831182456 32 199 3.2 1.6 0.00 0.00 0.00 57 1019.3
20260831181954 33 202 8.0 1.6 0.00 0.00 0.00 60 1019.3
20260831181453 33 224 6.4 1.6 0.00 0.00 0.00 63 1019.3
20260831180949 33 198 8.0 1.6 0.00 0.00 0.00 63 1019.3
20260831180443 32 355 0.0 1.6 0.00 0.00 0.00 63 1019.3
20260831175938 32 296 6.4 1.6 0.00 0.00 0.00 63 1019.3
20260831175437 32 301 3.2 1.6 0.00 0.00 0.00 64 1019.3
20260831174931 32 135 3.2 1.6 0.00 0.00 0.00 64 1019.3
20260831174428 32 184 1.6 0.0 0.00 0.00 0.00 63 1019.6
20260831173924 32 240 0.0 0.0 0.00 0.00 0.00 60 1019.3
20260831173416 32 171 1.6 1.6 0.00 0.00 0.00 61 1019.3
20260831172914 32 280 3.2 1.6 0.00 0.00 0.00 62 1019.3
20260831172405 32 164 3.2 1.6 0.00 0.00 0.00 62 1019.3
20260831171859 32 268 1.6 0.0 0.00 0.00 0.00 65 1019.6
20260831171352 32 247 3.2 0.0 0.00 0.00 0.00 61 1019.6
20260831170839 32 192 1.6 1.6 0.00 0.00 0.00 62 1019.6
20260831170337 32 246 1.6 1.6 0.00 0.00 0.00 62 1019.6
20260831165812 32 275 3.2 0.0 0.00 0.00 0.00 64 1019.6
20260831165310 32 148 0.0 0.0 0.00 0.00 0.00 63 1019.6
20260831164805 32 129 4.8 0.0 0.00 0.00 0.00 63 1019.6
20260831164256 31 184 0.0 0.0 0.00 0.00 0.00 61 1019.6
20260831163741 31 200 1.6 1.6 0.00 0.00 0.00 66 1019.6
20260831163232 31 269 4.8 1.6 0.00 0.00 0.00 65 1019.6
20260831162725 31 188 0.0 1.6 0.00 0.00 0.00 64 1020.0
20260831162222 31 214 4.8 1.6 0.00 0.00 0.00 64 1020.0
20260831161720 31 286 8.0 1.6 0.00 0.00 0.00 66 1020.0
20260831161218 31 103 0.0 0.0 0.00 0.00 0.00 66 1020.0
20260831160708 31 113 6.4 0.0 0.00 0.00 0.00 65 1020.0
20260831160201 31 42 6.4 0.0 0.00 0.00 0.00 68 1020.0
20260831155647 31 44 1.6 0.0 0.00 0.00 0.00 66 1020.0
20260831155138 31 82 0.0 0.0 0.00 0.00 0.00 65 1020.3
20260831154625 31 24 1.6 1.6 0.00 0.00 0.00 67 1020.3
20260831154118 31 305 1.6 0.0 0.00 0.00 0.00 68 1020.3
20260831153612 30 180 0.0 0.0 0.00 0.00 0.00 69 1020.3
20260831153108 30 27 0.0 0.0 0.00 0.00 0.00 68 1020.7
20260831152602 30 19 1.6 0.0 0.00 0.00 0.00 69 1020.3
20260831152050 30 278 1.6 1.6 0.00 0.00 0.00 69 1020.3
20260831151540 30 332 0.0 1.6 0.00 0.00 0.00 69 1020.3
20260831151032 30 47 0.0 0.0 0.00 0.00 0.00 69 1020.3
20260831150529 30 355 0.0 0.0 0.00 0.00 0.00 70 1020.3
20260831150025 30 23 1.6 0.0 0.00 0.00 0.00 72 1020.3
20260831145519 30 346 3.2 0.0 0.00 0.00 0.00 72 1020.3
20260831145018 29 334 0.0 0.0 0.00 0.00 0.00 73 1020.3
20260831144515 29 26 1.6 0.0 0.00 0.00 0.00 73 1020.3
20260831144003 29 344 3.2 0.0 0.00 0.00 0.00 75 1020.0
20260831143455 29 360 3.2 0.0 0.00 0.00 0.00 74 1020.0
20260831142941 29 346 1.6 0.0 0.00 0.00 0.00 75 1020.0
20260831142433 28 266 4.8 0.0 0.00 0.00 0.00 77 1020.0
20260831141921 28 315 1.6 0.0 0.00 0.00 0.00 80 1020.0
20260831141408 28 336 0.0 0.0 0.00 0.00 0.00 79 1020.0
20260831140907 28 298 3.2 0.0 0.00 0.00 0.00 79 1020.0
20260831140359 28 329 1.6 1.6 0.00 0.00 0.00 81 1020.0
20260831135850 28 333 6.4 1.6 0.00 0.00 0.00 82 1020.0
20260831135330 28 338 3.2 0.0 0.00 0.00 0.00 83 1020.0
20260831134814 27 315 1.6 0.0 0.00 0.00 0.00 84 1020.0
20260831134307 27 333 1.6 1.6 0.00 0.00 0.00 86 1020.0
20260831133755 27 295 9.7 1.6 0.00 0.00 0.00 86 1019.6
20260831133250 27 292 1.6 0.0 0.00 0.00 0.00 88 1020.0
20260831132740 27 18 3.2 1.6 0.00 0.00 0.00 89 1020.0
20260831132236 26 295 4.8 0.0 0.00 0.00 0.00 89 1020.0
20260831131728 26 20 1.6 0.0 0.00 0.00 0.00 90 1020.0
20260831131224 26 14 4.8 0.0 0.00 0.00 0.00 90 1020.0
20260831130708 26 346 1.6 0.0 0.00 0.00 0.00 91 1020.0
20260831130158 26 355 3.2 0.0 0.00 0.00 0.00 93 1020.0
20260831125641 25 355 0.0 0.0 0.00 0.00 0.00 94 1020.0
20260831125140 25 9 0.0 0.0 0.00 0.00 0.00 96 1020.0
20260831124630 25 313 0.0 0.0 0.00 0.00 0.00 97 1020.0
20260831124112 24 5 0.0 0.0 0.00 0.00 0.00 98 1020.0
20260831123600 24 342 1.6 0.0 0.00 0.00 0.00 98 1020.0
20260831123051 23 20 0.0 0.0 0.00 0.00 0.00 98 1020.0
20260831122548 23 344 0.0 0.0 0.00 0.00 0.00 98 1020.0
20260831122046 23 355 0.0 0.0 0.00 0.00 0.00 98 1020.0
20260831121540 23 334 0.0 0.0 0.00 0.00 0.00 98 1020.0
20260831121033 23 336 0.0 0.0 0.00 0.00 0.00 98 1020.0
20260831120516 23 297 0.0 0.0 0.00 0.00 0.00 98 1019.6
20260831120003 23 348 0.0 0.0 0.00 0.00 0.00 98 1019.6
20260831115447 22 310 0.0 0.0 0.00 0.00 0.00 98 1019.6
20260831114941 22 310 0.0 0.0 0.00 0.00 0.00 98 1019.6
20260831114432 22 310 0.0 0.0 0.00 0.00 0.00 98 1019.6
20260831113916 22 310 0.0 0.0 0.00 0.00 0.00 98 1019.6
20260831113357 22 310 0.0 0.0 0.00 0.00 0.00 98 1019.6
20260831112843 21 310 0.0 0.0 0.00 0.00 0.00 98 1019.6
20260831112325 21 310 0.0 0.0 0.00 0.00 0.00 98 1019.6
20260831111812 21 310 0.0 0.0 0.00 0.00 0.00 98 1019.6
20260831111309 21 310 0.0 0.0 0.00 0.00 0.00 98 1019.6
20260831110759 21 310 0.0 0.0 0.00 0.00 0.00 98 1019.6
20260831110248 21 310 0.0 0.0 0.00 0.00 0.00 98 1019.6
20260831105748 21 310 0.0 0.0 0.00 0.00 0.00 98 1019.6
20260831105239 21 310 0.0 0.0 0.00 0.00 0.00 98 1019.6
20260831104718 21 310 0.0 0.0 0.00 0.00 0.00 98 1019.6
20260831104203 21 309 1.6 0.0 0.00 0.00 0.00 98 1019.6
20260831103650 21 346 1.6 0.0 0.00 0.00 0.00 98 1019.3
20260831103137 21 122 0.0 0.0 0.00 0.00 0.00 98 1019.3
20260831102616 20 124 0.0 0.0 0.00 0.00 0.00 98 1019.3
20260831102100 20 124 0.0 0.0 0.00 0.00 0.00 98 1019.6
20260831101547 20 124 0.0 0.0 0.00 0.00 0.00 98 1019.3
20260831101027 20 124 0.0 0.0 0.00 0.00 0.00 98 1019.3
20260831100524 20 124 0.0 0.0 0.00 0.00 0.00 98 1019.3
20260831100015 21 124 0.0 0.0 0.00 0.00 0.00 98 1019.3
20260831095511 21 124 0.0 0.0 0.00 0.00 0.00 98 1019.3
20260831095003 21 124 0.0 0.0 0.00 0.00 0.00 98 1019.3
20260831094451 21 124 0.0 0.0 0.00 0.00 0.00 98 1019.3
20260831093940 21 124 0.0 0.0 0.00 0.00 0.00 98 1019.3
20260831093425 21 124 0.0 0.0 0.00 0.00 0.00 98 1019.6
20260831092908 21 124 0.0 0.0 0.00 0.00 0.00 98 1019.3
20260831092358 21 124 0.0 0.0 0.00 0.00 0.00 98 1019.3
20260831091846 21 124 0.0 0.0 0.00 0.00 0.00 98 1019.3
20260831091339 21 124 0.0 0.0 0.00 0.00 0.00 98 1019.3
20260831090837 21 124 0.0 0.0 0.00 0.00 0.00 98 1019.3
20260831090323 21 124 0.0 0.0 0.00 0.00 0.00 98 1019.3
20260831085816 21 124 0.0 0.0 0.00 0.00 0.00 98 1019.3
20260831085306 21 124 0.0 0.0 0.00 0.00 0.00 98 1019.3
20260831084746 21 124 0.0 0.0 0.00 0.00 0.00 98 1019.3
20260831084245 21 124 0.0 0.0 0.00 0.00 0.00 98 1019.3
20260831083743 21 124 0.0 0.0 0.00 0.00 0.00 98 1019.3
20260831083240 21 124 0.0 0.0 0.00 0.00 0.00 98 1019.3
20260831082730 21 124 0.0 0.0 0.00 0.00 0.00 98 1019.6
20260831082213 21 124 0.0 0.0 0.00 0.00 0.00 98 1019.3
20260831081702 21 124 0.0 0.0 0.00 0.00 0.00 98 1019.6
20260831081159 21 124 0.0 0.0 0.00 0.00 0.00 97 1019.6
20260831080653 21 124 0.0 0.0 0.00 0.00 0.00 98 1019.6
20260831080147 21 124 0.0 0.0 0.00 0.00 0.00 98 1019.6
20260831075646 21 124 0.0 0.0 0.00 0.00 0.00 98 1019.6
20260831075139 21 124 0.0 0.0 0.00 0.00 0.00 98 1019.6
20260831074626 21 124 0.0 0.0 0.00 0.00 0.00 98 1019.6
20260831074125 21 124 0.0 0.0 0.00 0.00 0.00 98 1019.6
20260831073618 21 124 0.0 0.0 0.00 0.00 0.00 98 1019.6
20260831073115 21 124 0.0 0.0 0.00 0.00 0.00 98 1019.6
20260831072602 21 129 0.0 0.0 0.00 0.00 0.00 97 1019.6
20260831072058 21 176 0.0 0.0 0.00 0.00 0.00 98 1019.6
20260831071547 21 176 0.0 0.0 0.00 0.00 0.00 98 1019.6
20260831071034 21 179 0.0 0.0 0.00 0.00 0.00 98 1019.6
20260831070528 21 179 0.0 0.0 0.00 0.00 0.00 98 1019.6
20260831070016 21 179 0.0 0.0 0.00 0.00 0.00 98 1019.6
20260831065457 21 179 0.0 0.0 0.00 0.00 0.00 98 1019.6
20260831064948 21 179 0.0 0.0 0.00 0.00 0.00 98 1019.6
20260831064439 21 179 0.0 0.0 0.00 0.00 0.00 97 1019.6
20260831063927 21 179 0.0 0.0 0.00 0.00 0.00 97 1019.6